Location: Haliburton Scout Reserve
(45.0900°N, 78.3200°W)
Time: 06:53:25
(UTC-04:00)

S-56A Canister/Altair - Pass Details

Date: 04 February 2023
Orbit: 639 x 2493 km, 38.9° (Epoch: 27 March)

Event Time Altitude Azimuth Distance (km) Brightness Sun altitude
Rises 14:09:07 0° 266° (W) 3,160 11.1 24.6°
Reaches altitude 10° 14:11:20 10° 259° (W) 2,366 10.7 24.4°
Maximum altitude 14:16:31 43° 189° (S) 1,351 10.2 23.9°
Drops below altitude 10° 14:23:54 10° 121° (ESE) 3,361 10.9 23.3°
Sets 14:27:37 0° 116° (ESE) 4,654 11.5 23.0°
